GFSMA_con_3kmhel_018.txt.gz
Helicity
82 90 101 108 125 105 101 95 99 91 80 62 61 55 57 69 85 85 85 101 100 102 92 92 97 95 94 106 100 110 111 98 85 86 86 78 71 67 88 89 56 40 46
85 126 164 171 140 122 111 114 114 108 93 77 85 100 87 84 89 102 104 104 153 175 179 167 161 157 126 104 108 114 116 134 118 105 110 98 90 75 73 89 91 73 41
167 196 190 162 147 145 126 119 136 165 153 133 132 118 119 121 120 112 99 114 143 198 217 232 210 185 178 145 116 99 98 98 114 137 129 127 118 104 88 81 91 100 74
206 179 169 157 130 129 151 139 175 141 147 171 158 159 149 140 132 123 140 166 172 186 225 261 234 224 222 216 179 145 110 91 87 96 137 157 125 117 121 96 84 95 103
166 119 148 111 163 136 170 133 124 148 162 168 176 185 165 127 93 84 133 155 161 167 172 224 265 226 205 203 225 204 168 139 110 85 81 117 159 144 127 124 104 93 97
111 145 184 204 207 177 137 121 114 96 85 103 109 98 101 93 85 144 142 147 138 129 127 125 107 117 195 174 150 187 213 185 160 140 120 82 98 138 134 127 116 102 103
233 207 203 222 190 157 116 99 61 89 95 79 31 66 76 108 148 147 155 119 126 122 95 72 74 53 63 151 136 109 140 192 186 165 148 194 147 110 112 121 118 107 104
189 196 188 159 153 150 168 150 128 109 46 91 92 59 109 131 109 135 130 132 105 62 59 66 63 65 71 60 88 155 119 94 177 182 178 159 159 174 81 75 102 98 94
226 216 200 183 162 145 96 109 117 95 102 123 186 163 186 212 196 148 160 114 114 58 53 28 43 53 58 87 115 114 154 128 119 183 205 198 163 155 154 78 60 85 75
157 180 203 156 153 160 202 171 156 140 147 172 117 131 143 168 148 110 109 126 88 109 97 91 89 79 62 77 133 168 168 177 162 133 154 198 197 194 145 133 39 47 64
205 201 180 152 169 166 141 98 78 87 85 81 81 110 122 122 80 102 120 81 69 72 67 74 84 94 106 127 113 97 178 152 149 151 144 144 177 234 241 163 47 34 53
188 163 165 204 224 184 135 129 133 145 142 132 120 106 91 76 87 103 119 120 113 104 105 121 123 117 159 154 155 164 154 116 98 115 125 148 154 187 289 314 131 74 38
194 165 179 176 205 155 150 158 138 99 131 117 79 109 89 121 153 156 127 110 78 78 64 100 95 126 61 127 153 167 158 94 84 69 57 78 144 169 240 323 240 121 17
193 197 207 218 181 167 151 109 106 121 121 79 38 38 100 123 131 131 127 103 71 89 89 45 67 64 81 43 103 213 158 129 88 79 53 37 81 145 227 282 298 259 91
179 221 265 193 188 166 103 80 128 102 94 80 74 97 122 114 124 128 139 135 127 104 67 55 58 53 72 69 54 66 121 137 100 71 51 21 43 114 172 254 280 271 307
189 226 215 197 176 126 133 127 125 82 89 106 114 128 134 137 130 122 128 122 137 152 153 122 95 90 78 65 82 72 58 83 80 33 32 28 18 31 140 248 216 249 341
160 204 240 238 193 156 102 112 104 111 119 135 139 141 133 127 123 123 125 131 133 141 157 124 125 100 89 77 70 95 84 52 64 63 8 -5 10 11 49 200 259 174 265
145 176 195 195 157 91 122 145 132 151 165 142 134 151 142 132 143 152 157 140 135 132 145 124 103 92 82 93 114 100 83 79 95 66 67 3 -22 5 15 132 293 185 301
125 141 148 120 95 113 155 131 148 166 154 145 153 151 148 154 169 169 168 156 130 114 122 128 103 102 102 114 105 116 93 89 91 120 102 54 -28 -26 14 36 229 188 207
113 104 108 102 131 145 137 125 161 143 142 151 150 158 162 172 180 162 141 126 119 133 119 118 97 106 96 91 113 108 99 91 77 70 86 61 54 -14 10 40 185 187 221
105 102 113 129 107 145 150 162 141 133 132 132 136 135 152 152 100 96 128 134 132 143 130 101 99 72 58 66 83 95 82 90 80 52 48 79 90 60 66 23 68 205 143
107 113 121 125 168 185 167 146 150 128 129 129 122 128 145 104 89 73 68 64 76 97 108 106 89 83 53 50 72 62 72 77 64 59 46 70 109 101 64 81 30 144 184
115 122 137 170 172 145 150 126 128 116 116 106 109 120 120 93 77 104 82 68 56 49 73 78 72 56 53 54 42 24 91 52 54 59 37 67 72 73 92 59 31 71 49
142 150 168 168 144 130 120 109 104 99 102 90 95 119 121 83 88 76 93 81 76 68 60 73 69 63 40 32 31 1 22 16 27 35 36 45 44 70 78 90 96 77 88
154 146 159 158 137 103 106 102 93 90 79 80 89 130 107 80 65 47 76 81 71 70 41 17 18 11 -1 -3 20 19 24 25 27 31 40 34 45 75 86 91 102 103 78
159 181 161 135 120 101 96 88 78 82 90 91 99 103 73 62 46 46 67 71 87 48 15 5 25 20 -7 -14 -14 3 1 18 44 41 35 43 56 62 89 103 121 102 129

GFSMA_con_3kmhel_021.txt.gz
Helicity
77 82 93 90 102 100 122 127 121 125 134 125 108 84 86 93 94 80 68 90 110 112 125 144 162 153 131 128 128 108 105 121 121 136 150 142 113 105 96 96 86 72 58
84 92 106 114 123 132 152 151 132 117 127 126 116 102 110 110 128 124 109 106 148 170 161 161 164 183 187 176 177 166 134 105 115 100 114 142 147 130 111 107 90 83 83
107 109 101 120 133 182 153 183 128 150 152 130 114 118 116 128 147 154 148 148 150 172 194 192 187 183 202 217 207 194 191 171 123 115 95 84 131 146 139 119 108 91 89
123 134 153 163 169 224 178 183 124 151 139 135 163 177 170 168 159 141 136 157 168 165 161 206 188 161 152 163 191 208 201 186 178 145 123 116 71 103 133 145 132 115 105
111 191 207 176 152 175 190 174 147 118 125 150 160 138 149 146 135 137 187 175 158 166 177 185 183 154 160 143 130 149 184 211 194 197 178 157 139 75 97 130 146 140 132
130 139 161 178 171 178 161 126 120 91 70 96 99 108 113 95 106 179 233 190 136 147 154 159 146 148 139 146 142 120 113 162 195 202 184 174 193 193 118 101 137 134 137
154 177 190 169 149 156 138 125 110 125 172 171 137 132 75 49 96 179 225 227 203 193 176 166 146 114 95 130 129 159 160 132 144 183 197 173 163 179 169 166 77 120 129
178 149 162 189 170 167 177 189 202 176 163 170 124 85 113 123 167 206 211 223 235 165 155 153 127 114 87 89 102 135 145 159 136 123 185 195 164 164 165 157 123 65 98
208 197 190 179 177 171 195 201 181 161 167 137 155 183 222 243 218 170 163 163 155 141 114 114 119 107 70 66 74 124 128 143 149 133 116 151 178 163 153 156 147 106 47
194 183 176 167 166 169 186 187 190 188 186 214 157 152 170 180 184 160 137 150 118 91 127 135 138 127 109 79 88 100 133 155 128 118 126 143 145 185 181 163 149 121 75
143 159 154 131 145 169 203 206 169 162 154 178 169 161 145 122 96 112 131 121 102 80 63 94 94 83 73 76 94 114 159 157 114 85 103 112 142 147 198 193 182 157 66
136 145 137 147 179 185 172 160 151 135 133 112 106 97 86 95 88 108 120 122 117 85 80 71 95 77 63 53 61 97 161 172 115 77 90 107 103 133 162 202 236 278 110
127 142 148 209 241 203 146 149 130 120 118 121 119 97 85 64 52 65 91 105 108 73 61 64 59 59 71 86 61 38 92 157 151 89 88 104 127 133 160 179 238 302 336
151 134 151 198 171 150 162 131 129 151 169 139 94 78 53 54 93 107 116 127 108 97 76 45 56 52 45 56 81 47 43 55 100 119 74 71 93 129 145 162 196 257 347
107 99 119 142 150 173 158 123 132 119 120 92 80 89 85 89 112 135 147 151 147 119 86 58 56 54 53 49 44 64 85 61 67 70 56 49 54 82 102 118 165 199 287
91 99 112 137 167 197 150 103 96 101 120 108 124 118 107 123 139 144 142 146 150 158 150 125 87 67 52 54 52 61 75 73 70 68 68 32 33 32 60 83 94 145 199
90 100 109 133 152 179 137 97 94 127 136 119 154 146 120 131 139 139 142 152 161 162 149 108 108 72 48 54 56 63 67 81 78 67 65 48 20 8 8 50 54 130 140
88 98 119 131 150 131 90 98 137 156 117 137 149 136 129 136 127 133 155 154 162 145 140 95 77 72 63 58 68 69 83 87 96 75 78 63 58 -13 -0 22 41 55 147
100 112 126 130 97 101 125 153 143 141 138 140 123 111 114 126 125 146 155 150 126 116 117 122 91 81 77 67 60 70 79 71 82 79 56 47 38 19 -10 -8 21 49 101
114 130 127 116 115 113 135 126 150 141 134 108 105 110 116 127 134 137 130 98 104 119 110 110 99 88 80 65 65 62 78 70 62 75 62 47 63 66 25 -6 16 31 65
129 129 130 121 144 139 144 143 141 118 90 84 90 98 112 115 96 104 100 90 101 107 101 102 98 87 68 60 64 71 74 74 59 73 72 63 48 38 49 68 53 43 109
134 145 153 138 143 148 160 145 108 77 78 84 86 87 99 85 97 67 52 62 72 87 85 93 95 80 50 38 37 43 53 59 95 43 67 69 63 61 45 47 86 136 73
141 157 159 148 158 151 123 99 78 79 78 77 81 86 88 88 90 75 57 58 57 51 74 72 72 59 39 26 31 42 41 45 87 85 56 53 63 68 65 61 73 118 119
145 140 142 145 139 127 111 89 84 78 70 73 75 75 81 80 86 59 56 68 69 59 69 70 48 33 23 16 16 18 38 27 44 54 17 27 53 57 52 37 49 99 68
145 137 141 148 131 119 96 84 70 68 66 62 70 70 72 87 66 31 51 64 66 62 68 34 13 11 22 15 -2 -15 11 13 -1 -4 -8 5 35 58 50 42 41 72 61
139 157 160 148 139 102 89 79 68 68 58 66 58 63 68 71 37 24 44 62 71 60 44 27 17 8 9 16 11 -8 -9 -2 18 15 1 21 43 52 51 27 49 62 65

GFSMA_con_3kmhel_024.txt.gz
Helicity
47 44 61 56 64 60 68 88 114 125 113 83 75 77 66 51 40 53 61 141 122 127 135 145 166 172 162 152 155 167 170 157 129 113 89 82 80 99 115 103 103 100 77
23 50 74 79 83 98 106 109 148 130 124 104 101 108 81 69 83 92 110 131 181 148 148 154 162 179 195 188 159 152 169 182 186 160 135 91 79 80 83 108 108 104 93
54 69 81 95 114 145 121 134 131 120 133 135 114 102 67 85 96 122 122 151 167 158 133 162 187 168 163 178 189 180 150 149 167 187 186 159 128 78 82 75 94 103 106
51 75 113 154 151 153 137 134 161 155 133 114 115 95 87 97 100 89 92 139 164 149 144 200 184 183 152 148 135 148 165 154 139 145 173 227 213 179 102 86 78 92 103
109 123 139 150 128 136 159 176 167 130 118 122 117 86 96 112 92 103 127 149 150 185 214 232 175 150 181 175 161 134 113 132 166 162 150 153 206 217 214 141 89 82 97
126 126 144 151 157 158 161 166 130 130 114 129 148 105 120 91 87 90 144 117 136 148 132 191 205 196 200 157 180 182 184 144 116 164 175 155 150 182 201 195 171 89 80
115 135 164 177 177 169 167 154 152 148 136 154 110 122 84 42 99 116 169 152 137 189 174 161 141 187 181 200 133 175 192 188 182 132 155 183 175 155 180 199 176 170 85
178 190 204 196 169 141 145 140 136 142 135 172 137 112 162 164 101 279 186 158 157 179 166 158 146 155 136 134 142 157 116 169 184 179 165 159 191 186 159 183 198 167 145
198 193 177 159 150 137 143 145 153 143 164 155 183 148 200 243 254 153 170 135 179 141 138 120 143 128 109 84 54 111 188 159 156 164 149 167 180 210 198 178 196 212 170
160 155 144 131 121 126 131 135 153 168 182 164 144 137 130 155 199 223 166 153 97 112 118 138 125 131 123 111 120 47 103 134 178 131 126 133 176 216 233 203 181 230 228
124 126 121 118 119 127 159 184 191 197 160 156 152 163 163 159 139 166 177 128 106 80 69 78 96 65 82 85 75 44 108 71 108 144 111 128 137 166 222 245 228 191 265
114 96 127 107 121 139 174 189 183 134 151 156 155 143 125 112 103 114 108 103 92 84 93 75 72 51 63 52 68 73 33 48 60 90 117 77 121 141 169 228 251 218 173
108 115 115 109 124 150 187 165 170 146 124 136 133 112 109 76 86 91 98 90 90 80 86 86 75 51 52 51 55 71 100 61 49 55 89 77 66 92 125 167 219 248 220
121 118 100 94 97 136 142 148 127 140 95 116 90 86 92 91 96 90 90 99 105 101 90 73 73 65 61 52 74 46 55 63 45 40 74 88 46 40 72 114 152 200 250
100 102 93 98 99 115 124 117 116 100 72 98 108 98 94 100 96 92 95 109 128 126 112 77 58 60 75 84 85 69 58 62 96 81 70 89 56 28 41 80 127 171 205
109 99 88 88 97 115 106 118 105 67 61 104 99 96 103 106 110 98 96 109 126 133 147 103 79 70 65 66 57 53 48 51 56 67 69 82 76 56 35 45 93 141 164
93 88 88 92 94 106 123 117 63 67 86 98 93 92 115 106 103 92 100 112 119 125 133 109 81 70 72 71 76 79 72 56 66 56 90 81 99 111 60 36 61 101 128
93 92 98 100 103 123 116 49 104 148 120 92 109 113 106 101 85 82 101 112 130 137 152 86 73 80 91 70 73 75 64 66 61 46 81 99 68 83 79 46 48 73 95
111 103 112 102 124 138 109 91 132 144 131 124 116 106 85 86 84 99 108 122 148 137 106 115 100 90 84 70 68 69 81 71 49 42 50 54 -3 25 72 65 50 61 75
121 123 111 136 152 123 111 112 115 103 106 100 88 73 85 87 100 108 113 115 130 101 96 110 106 90 76 69 62 65 71 57 40 33 48 78 82 45 48 42 62 63 66
125 117 130 145 144 140 136 119 105 86 78 67 70 81 84 126 92 89 107 102 84 80 102 102 94 92 82 63 47 35 41 43 36 50 38 68 53 37 11 -7 52 85 102
110 138 135 157 133 156 171 132 83 63 57 65 77 72 80 92 99 72 61 59 51 70 69 83 93 89 56 45 40 44 28 26 45 45 66 39 66 77 82 60 71 121 136
134 134 137 139 127 158 139 110 71 39 63 74 68 70 77 82 73 75 71 34 36 46 91 88 77 66 50 14 9 21 25 19 19 31 20 74 54 44 83 77 -3 31 100
135 123 148 129 124 164 128 97 51 46 61 63 65 69 68 68 81 86 52 34 35 44 57 70 71 43 10 -28 -19 3 8 18 27 29 43 57 39 38 58 57 17 22 84
129 133 141 131 118 135 126 85 48 55 60 52 63 64 81 57 80 41 43 30 25 35 59 60 33 20 19 15 19 4 7 -6 6 -6 15 13 13 24 25 35 40 -2 71
125 129 135 131 161 122 136 85 57 58 55 53 55 67 83 88 45 30 43 35 31 30 37 38 24 13 18 22 57 54 21 -1 -12 20 15 18 11 14 16 6 17 49 35

GFSMA_con_3kmhel_027.txt.gz
Helicity
95 55 38 26 46 60 69 84 104 104 73 60 93 85 80 46 49 47 75 114 119 105 95 112 129 140 139 141 152 161 168 164 167 148 139 145 114 82 68 62 62 64 71
158 200 162 129 42 82 121 115 155 102 131 118 128 118 82 53 36 37 63 61 129 118 118 110 121 131 148 158 158 164 166 168 166 178 179 164 161 146 90 75 67 62 63
130 131 63 50 147 126 119 132 126 130 116 117 110 88 84 96 80 82 119 78 97 129 133 145 129 121 115 139 171 180 169 160 165 165 181 182 176 192 173 125 78 68 68
143 88 129 151 108 87 124 122 108 106 94 100 92 113 124 97 91 111 88 107 157 183 159 118 127 104 89 117 138 147 157 176 169 169 174 188 187 183 194 175 160 84 64
96 99 109 133 112 129 114 83 121 90 104 113 111 142 145 83 107 70 73 57 154 108 136 122 163 115 91 150 134 157 147 177 167 184 209 197 197 197 196 196 185 167 100
94 96 110 100 95 93 113 166 113 124 129 134 127 146 75 115 62 93 52 114 123 216 131 240 197 107 126 167 170 128 170 208 210 215 187 214 216 210 223 216 212 184 164
84 88 111 105 93 103 135 99 100 109 116 121 132 128 138 50 141 126 116 248 282 125 206 158 146 168 128 173 80 131 158 137 221 226 214 187 190 206 203 221 220 224 188
130 119 121 130 175 136 123 142 171 136 136 144 159 177 158 149 147 217 267 242 130 126 115 155 156 81 136 117 142 148 158 217 158 128 164 177 149 158 199 222 239 234 241
153 145 148 152 155 142 161 173 163 187 157 153 133 189 212 252 260 158 165 158 150 186 132 69 75 101 103 137 71 124 154 124 125 122 150 140 133 133 158 216 246 242 243
156 153 158 160 159 143 144 142 156 230 145 189 178 164 207 227 264 272 211 153 107 82 72 76 66 79 86 56 59 64 65 36 51 98 149 184 130 115 131 165 212 248 246
119 123 129 148 136 124 137 166 181 159 155 200 210 217 198 179 159 199 219 136 70 45 45 62 78 79 54 45 59 48 68 -3 -15 33 96 146 175 146 117 114 186 230 253
152 155 181 158 132 112 124 142 196 175 248 191 125 160 181 175 149 123 111 96 80 53 46 54 59 74 68 64 53 63 65 110 78 48 72 83 105 132 157 122 151 208 240
155 167 157 123 114 113 117 178 206 153 150 100 80 120 149 121 96 84 109 98 102 76 66 76 54 66 68 75 73 96 123 100 47 24 64 63 76 98 98 104 127 190 217
139 152 111 101 90 90 98 201 166 157 94 104 107 106 123 123 118 122 138 108 109 90 89 82 82 74 65 68 75 74 86 93 81 57 85 108 75 80 78 73 98 136 175
118 126 113 97 92 93 81 138 117 84 111 90 85 99 105 145 121 157 128 127 101 106 100 99 115 61 69 79 87 90 83 54 39 36 45 39 56 66 82 58 56 86 118
111 112 103 98 96 84 78 101 136 96 64 72 93 100 160 126 111 105 126 107 90 97 127 116 106 79 99 103 81 80 81 72 40 34 39 74 58 61 77 78 67 56 85
102 99 95 93 85 89 102 139 146 106 73 56 113 167 88 79 129 127 96 110 111 110 144 141 116 112 102 102 99 100 86 73 66 42 44 49 83 90 94 86 74 59 64
103 105 102 100 101 116 189 129 101 109 92 211 168 163 142 133 103 93 97 106 116 114 143 130 117 91 79 84 85 72 73 70 70 59 49 48 62 125 85 65 66 55 61
120 121 107 109 130 154 116 204 139 118 100 97 112 124 106 88 86 93 111 114 110 120 148 174 115 93 98 81 65 63 65 65 49 29 17 5 66 55 15 45 54 55 67
133 108 105 120 154 128 165 149 145 120 97 104 105 93 81 77 104 132 98 115 121 135 130 117 87 93 85 66 74 63 45 53 51 33 38 24 30 16 19 6 11 35 65
115 104 111 117 186 164 202 180 141 135 103 83 81 69 82 137 115 99 87 85 93 102 98 80 86 85 86 80 70 38 36 44 47 40 18 24 23 60 26 -5 -3 39 68
113 120 124 128 187 186 314 197 124 100 77 74 73 84 81 90 124 110 66 99 75 68 56 73 81 78 57 47 33 29 29 34 40 14 12 5 13 59 81 55 14 31 59
134 122 115 158 140 245 275 173 108 76 64 76 80 77 77 86 108 125 115 71 54 50 94 91 71 70 71 57 41 36 10 5 9 12 10 17 16 92 83 107 9 42 -13
127 124 123 166 153 264 270 159 86 53 69 70 73 65 71 94 152 116 79 48 45 38 37 72 77 66 44 15 8 18 9 11 9 19 17 10 42 20 28 24 52 -8 -11
125 150 120 173 145 213 254 162 84 68 63 65 60 61 108 79 139 91 58 49 42 34 34 44 32 26 23 43 46 58 46 33 25 -12 -1 -6 3 27 12 -5 2 19 31
107 137 139 145 189 206 209 161 94 72 65 57 54 61 146 130 105 63 56 51 47 33 27 16 39 25 14 11 29 67 57 47 31 6 -21 17 25 18 10 3 -3 15 31

GFSMA_con_3kmhel_030.txt.gz
Helicity
88 84 146 176 195 142 106 99 127 112 122 111 117 118 96 61 52 70 83 89 80 67 76 95 98 106 121 122 126 146 158 160 160 166 155 168 157 135 127 88 71 65 65
147 81 97 130 129 125 127 96 70 79 84 86 78 109 107 105 131 111 77 87 82 126 148 155 150 109 93 105 117 147 158 160 162 159 169 160 173 163 149 150 130 77 65
84 82 146 148 108 106 79 66 81 116 109 92 99 100 72 121 143 89 91 87 90 170 164 143 104 100 83 42 82 88 133 159 184 188 184 182 183 182 173 154 162 148 120
111 105 96 93 91 80 88 84 105 131 97 85 81 66 120 145 108 108 90 93 55 141 116 91 135 157 101 6 45 84 100 85 141 170 192 222 221 217 190 183 176 176 158
57 51 87 84 70 107 115 143 161 134 109 92 94 113 129 111 103 63 61 54 69 195 240 168 229 234 134 164 162 155 129 107 122 135 238 240 238 240 219 178 184 185 188
65 88 70 68 69 104 151 156 115 91 102 93 108 111 132 145 69 129 176 236 274 274 272 240 218 253 309 284 260 201 164 182 225 195 207 208 204 180 222 213 167 181 194
76 114 183 153 140 141 140 122 142 161 120 124 127 137 124 115 154 189 283 320 347 295 273 235 234 194 133 211 197 258 215 157 136 135 122 123 129 173 163 217 237 192 206
113 115 116 137 189 159 135 164 162 143 162 157 165 144 151 171 155 237 172 200 275 259 231 202 168 92 71 119 98 110 114 61 103 102 95 89 120 127 147 143 202 234 208
136 140 143 160 149 157 154 154 139 176 216 194 142 220 201 250 243 188 196 194 198 190 211 201 139 95 84 69 66 22 81 49 65 52 83 71 111 165 190 170 150 191 224
87 137 148 131 144 144 132 144 166 196 191 212 204 227 198 284 292 251 248 244 190 174 124 102 73 85 85 84 76 54 72 58 31 34 18 22 53 125 179 135 131 119 185
165 161 228 264 249 211 165 153 155 180 213 240 271 248 242 274 268 288 279 174 142 106 83 61 53 56 82 85 82 72 43 38 54 50 36 13 17 82 128 143 106 121 100
270 277 276 231 181 178 171 156 173 252 293 240 200 208 197 249 268 230 195 158 130 98 98 93 59 62 64 83 103 120 103 69 66 62 68 52 28 48 80 108 150 152 134
251 241 223 175 160 151 135 127 163 207 199 183 178 169 170 219 230 199 162 165 195 125 102 96 88 82 63 54 59 71 91 83 67 89 81 52 18 20 88 83 105 123 104
214 204 179 172 144 134 116 105 171 191 161 168 143 160 125 177 171 146 193 216 162 120 99 109 92 88 97 107 120 114 101 107 87 64 49 44 13 19 28 63 79 94 95
150 217 193 156 139 122 116 111 124 142 145 123 95 104 137 154 124 171 188 154 150 167 140 104 117 83 115 131 147 140 106 81 72 57 40 21 29 41 43 38 42 71 79
174 162 150 142 124 108 102 109 165 158 156 128 105 93 113 148 167 176 139 121 134 156 153 140 131 143 143 145 118 92 81 68 50 39 38 39 46 50 68 59 50 57 62
174 140 152 146 117 106 120 211 168 100 171 137 135 195 159 177 168 182 124 169 158 162 165 144 136 140 150 137 80 73 67 76 86 57 48 49 50 58 46 58 59 74 76
166 157 166 161 123 125 199 183 229 177 158 147 129 95 100 89 168 160 142 153 151 125 134 159 173 160 127 92 89 80 90 73 85 52 42 51 52 51 37 47 85 70 63
163 190 219 169 128 157 211 215 206 164 131 168 161 136 132 136 129 134 151 119 110 130 151 168 147 118 113 89 85 86 77 95 75 42 31 23 34 12 20 32 54 51 45
194 218 185 138 127 197 242 189 221 193 167 163 134 123 126 117 162 133 110 110 117 132 124 122 113 103 89 81 90 95 85 69 66 52 44 35 24 11 -6 28 30 -9 7
168 173 132 124 160 236 254 286 258 214 175 140 120 132 138 139 111 145 113 113 138 127 108 96 99 97 85 86 84 83 93 68 28 42 48 17 7 9 14 15 10 15 12
103 141 146 154 163 259 294 278 238 182 131 106 116 131 125 104 139 117 114 190 114 129 111 134 137 107 95 83 81 74 50 35 14 -5 48 1 31 24 23 41 24 21 17
138 144 139 142 207 314 292 253 227 163 112 100 114 123 102 101 176 160 151 120 80 52 74 107 106 97 106 104 75 50 48 60 45 40 48 6 23 19 2 87 23 -3 -27
114 131 170 168 213 304 276 249 204 145 99 97 116 104 97 125 164 144 104 81 85 72 66 89 83 83 91 66 70 71 68 78 76 75 67 35 18 59 61 32 36 21 -4
104 138 166 160 193 297 262 247 203 148 116 108 105 88 93 112 197 147 99 86 73 67 51 37 17 26 39 27 47 73 112 107 113 95 72 30 6 22 33 62 25 10 3
98 146 236 243 258 319 252 227 186 153 132 111 87 93 130 170 144 98 96 99 87 71 61 59 65 67 61 45 10 22 48 22 15 4 42 3 -16 26 14 9 -6 30 7

GFSMA_con_3kmhel_033.txt.gz
Helicity
142 99 108 150 186 162 141 144 108 107 96 116 134 116 99 99 122 101 78 33 62 74 95 151 138 91 77 62 74 101 135 152 161 169 168 158 169 158 158 149 147 150 120
117 157 204 156 196 122 105 125 102 113 108 119 117 103 101 139 114 81 65 80 38 89 119 137 147 146 111 56 19 30 79 149 180 190 180 177 166 191 186 162 151 146 167
136 186 171 169 118 95 80 103 136 144 156 145 134 105 130 95 78 65 72 72 62 101 138 196 210 208 122 91 62 64 65 32 57 154 221 245 229 187 195 202 165 163 150
139 111 126 109 105 88 96 120 127 136 131 133 110 101 100 100 96 72 107 139 154 119 164 145 208 249 206 179 171 134 81 67 23 61 113 225 282 282 220 188 198 162 155
108 87 109 102 128 156 145 120 116 110 108 85 59 60 88 93 76 74 155 247 286 275 125 157 293 302 302 274 220 201 151 83 130 73 75 125 153 199 196 180 143 153 162
64 62 73 93 134 142 136 110 108 86 62 44 48 65 79 87 103 129 179 214 256 338 360 356 297 260 250 234 235 202 160 147 119 113 161 124 108 80 181 202 199 152 137
142 138 138 128 126 121 92 91 80 81 49 66 60 63 52 95 135 196 181 191 217 260 278 295 303 237 173 185 139 96 92 48 32 31 38 73 137 121 133 179 245 232 174
132 137 152 134 132 119 125 109 102 87 92 102 72 63 89 78 169 156 173 168 207 172 184 198 190 191 170 135 65 80 103 65 20 -17 6 34 33 58 102 167 207 238 213
129 69 106 62 148 107 101 101 97 103 106 94 112 138 145 145 111 109 133 218 158 109 103 106 140 190 199 167 146 115 69 -2 -7 22 45 42 30 40 72 101 194 217 213
124 111 194 219 223 161 162 113 103 120 154 144 152 167 156 159 177 181 258 213 172 130 119 121 93 61 52 62 111 137 110 90 72 70 65 53 35 22 28 52 96 201 206
232 295 265 266 235 197 163 154 146 155 166 188 179 174 169 191 217 251 241 247 190 127 94 104 124 79 46 38 55 74 59 46 36 31 42 53 45 29 24 23 80 114 199
297 287 291 253 209 171 169 155 148 172 190 176 167 175 180 200 230 277 286 268 228 144 126 114 131 76 64 78 58 43 40 53 86 124 95 58 45 33 24 18 39 96 109
299 292 233 209 155 155 153 154 160 162 157 157 149 167 185 187 221 249 293 269 237 167 135 132 90 91 63 78 65 99 136 111 94 75 76 63 45 27 9 13 28 59 99
314 379 237 195 179 132 133 132 140 136 161 176 159 154 189 165 184 221 216 228 229 172 161 120 109 81 91 81 118 129 75 80 67 53 61 46 18 0 12 20 24 36 55
365 298 221 201 185 142 118 114 151 144 151 161 157 153 172 173 200 164 199 204 188 202 158 124 115 91 96 100 102 94 85 57 30 39 21 15 16 23 28 42 57 58 50
233 256 237 190 158 124 107 141 171 145 149 112 99 145 187 235 220 181 142 122 210 226 206 157 103 89 107 113 124 113 62 25 39 31 39 63 77 74 70 65 67 68 65
160 165 155 169 152 136 121 166 167 172 154 133 113 143 130 150 177 133 91 140 155 183 154 111 91 89 84 85 58 54 73 74 68 65 71 75 77 76 82 69 64 64 76
174 156 178 192 174 144 147 198 188 175 160 150 174 169 151 138 120 108 101 104 108 98 105 99 91 82 84 81 88 89 85 79 87 72 63 78 79 74 75 67 64 80 101
149 178 228 198 173 141 191 196 201 208 187 163 149 142 128 133 146 136 123 115 92 84 102 120 112 106 114 112 106 97 85 69 54 63 74 79 79 74 51 20 15 43 60
156 197 165 139 139 146 208 241 260 261 236 202 179 156 137 166 145 128 107 86 91 102 112 116 99 94 97 98 103 79 60 46 36 21 42 52 48 47 43 34 20 31 48
119 114 98 115 119 194 245 237 251 248 216 181 151 141 166 132 116 108 126 109 111 110 108 111 100 101 100 96 83 72 73 38 29 59 74 58 33 44 54 41 57 47 71
82 72 105 123 146 245 260 262 254 222 198 164 126 126 135 136 162 173 166 150 123 99 101 124 103 109 89 73 78 83 73 69 72 96 109 69 85 66 63 66 13 88 81
92 93 80 115 162 263 264 259 227 204 182 142 112 119 126 164 154 136 131 107 83 68 97 101 101 108 95 90 102 77 74 100 123 159 98 80 93 101 102 66 25 26 35
130 95 90 125 211 222 218 240 231 210 183 144 121 132 128 147 127 128 117 86 72 78 80 90 104 81 95 91 111 91 87 110 114 97 97 106 94 91 121 112 58 37 36
89 65 111 130 184 234 217 232 246 201 179 142 120 120 129 148 126 130 102 67 64 74 62 47 38 48 48 52 55 67 49 32 27 30 87 99 86 32 50 55 5 55 12
49 97 140 165 185 208 203 220 232 228 187 136 116 147 147 131 125 107 80 75 70 69 76 76 72 71 79 75 44 60 48 24 16 17 64 111 79 35 -30 9 34 4 4

GFSMA_con_3kmhel_036.txt.gz
Helicity
99 119 171 184 179 168 186 187 166 141 143 141 139 133 123 128 113 93 86 120 65 75 88 125 156 154 130 89 83 101 94 111 137 149 145 165 180 201 228 227 210 176 165
131 153 172 203 226 206 214 164 135 114 116 123 146 123 130 124 111 106 79 104 104 76 130 192 202 184 126 103 76 20 -2 24 114 146 165 168 174 175 206 237 237 213 168
138 166 205 239 198 171 143 126 113 114 131 131 137 119 124 117 104 88 133 187 157 157 177 212 246 208 182 162 127 72 72 44 11 -2 41 129 110 86 115 125 176 169 166
137 166 207 228 156 165 138 125 114 115 111 101 93 109 98 119 119 135 154 179 193 146 201 312 307 290 251 250 231 208 200 157 85 24 -5 -30 -28 37 112 100 110 138 149
148 181 212 200 168 151 144 114 119 79 70 68 43 50 64 87 124 151 152 176 237 293 318 307 294 247 221 188 181 181 185 168 180 144 135 67 -6 -61 -35 125 173 146 134
178 185 199 161 136 128 120 98 74 73 49 25 35 70 42 103 159 143 133 167 191 229 232 236 238 220 212 225 218 189 179 192 129 84 55 27 1 74 92 112 212 236 213
154 184 161 120 114 126 82 53 23 41 60 78 70 60 15 84 170 140 110 101 134 145 161 172 168 180 197 232 225 197 185 170 170 113 71 13 33 27 54 90 111 240 253
171 127 96 108 82 77 26 70 91 82 82 90 83 51 93 113 126 69 79 112 153 152 164 153 170 162 149 146 164 207 202 144 81 66 51 45 24 3 18 68 92 111 195
147 127 118 132 107 71 54 129 102 98 103 92 80 107 137 138 111 61 102 93 125 152 128 151 165 149 133 112 112 120 150 150 131 110 75 52 35 19 16 35 70 106 122
162 194 166 161 185 187 199 130 117 115 123 84 109 129 151 177 167 152 146 146 173 152 140 150 123 94 64 67 82 94 85 63 79 77 83 60 28 21 29 28 48 79 121
283 284 301 343 286 273 236 167 175 154 120 145 142 149 162 162 162 171 168 127 186 156 149 132 106 91 88 114 95 68 81 72 73 78 53 55 53 39 47 36 30 57 93
367 319 295 266 245 296 176 130 159 161 152 160 178 170 185 198 195 193 187 163 198 181 182 141 132 90 110 103 75 106 111 169 147 118 93 79 66 50 52 54 47 42 62
395 301 342 379 168 266 178 146 167 168 165 183 187 171 171 180 191 194 224 213 213 190 190 168 89 119 130 136 122 173 135 117 109 94 81 64 47 32 35 39 49 44 38
412 326 216 242 231 230 152 151 135 133 154 172 174 151 132 129 161 186 223 221 208 259 232 136 78 148 186 145 130 123 110 110 91 62 47 34 38 26 31 35 39 31 32
313 227 360 320 244 102 128 127 108 132 131 123 122 113 110 132 191 233 256 224 228 284 239 118 127 139 147 110 99 93 82 64 77 73 47 46 60 57 56 50 52 64 64
340 220 360 256 226 158 102 110 110 134 129 114 105 106 117 124 135 154 164 163 168 170 151 119 121 113 87 69 58 80 79 90 78 75 87 89 80 76 77 73 76 67 60
461 319 248 126 217 141 135 149 125 151 149 131 127 105 109 105 114 117 124 133 124 122 134 109 125 85 70 53 71 101 102 103 97 87 84 84 95 90 85 99 104 101 79
286 240 239 228 178 145 154 132 145 156 137 134 122 125 120 154 160 136 142 128 117 101 104 105 89 87 68 73 87 91 96 95 84 59 62 79 79 83 96 94 80 65 63
372 379 322 223 161 144 131 169 148 159 149 139 132 140 127 139 146 160 134 126 113 101 93 105 110 112 86 80 82 86 87 71 66 46 34 42 49 77 84 92 90 74 56
531 423 361 181 139 123 199 156 166 193 205 195 175 167 145 144 149 135 127 126 107 94 96 109 120 104 85 76 93 84 61 64 74 94 96 58 60 79 67 64 57 56 48
697 434 261 216 143 207 179 189 225 241 221 195 175 171 155 129 112 124 145 117 106 94 100 104 101 82 61 56 59 71 81 71 76 117 114 123 133 99 93 70 51 34 21
531 464 212 143 161 144 133 208 265 248 220 196 165 157 138 135 158 153 150 124 100 93 96 106 100 83 70 68 76 75 84 79 59 96 130 109 112 91 90 97 57 55 23
311 172 113 131 85 99 167 229 242 248 221 190 176 162 141 161 152 145 131 117 94 83 96 115 101 96 57 59 71 70 85 111 89 87 102 59 122 95 115 76 45 48 36
142 97 71 42 70 129 166 199 240 236 209 182 161 157 142 136 137 142 125 99 81 74 82 100 116 96 94 84 91 81 92 57 51 44 90 70 86 98 103 101 26 24 26
96 81 61 75 101 127 152 188 248 244 223 178 168 159 131 141 137 129 119 89 67 64 70 77 82 64 47 41 63 94 69 32 1 20 68 75 126 136 100 82 45 42 35
93 89 101 95 104 119 133 169 230 266 218 195 171 146 120 132 130 120 111 81 70 63 70 79 103 94 80 61 44 103 95 44 32 34 57 51 93 110 68 61 32 53 40

GFSMA_con_3kmhel_039.txt.gz
Helicity
75 86 111 141 177 193 222 225 189 173 161 140 119 125 123 125 107 83 77 93 78 74 94 123 110 110 83 81 68 20 2 9 51 114 118 121 114 116 123 130 141 126 114
96 125 168 214 249 246 218 186 168 155 144 128 142 134 132 131 128 111 81 85 126 129 170 201 187 145 129 103 54 27 -3 -60 -17 -8 14 67 120 113 101 101 119 137 115
161 197 223 263 270 236 195 158 154 135 138 119 131 129 144 137 142 128 114 92 124 256 296 255 218 226 196 156 129 87 82 79 44 1 -31 -68 -38 14 90 107 122 122 153
189 242 276 274 244 198 148 124 113 124 112 116 110 113 126 122 107 118 122 113 136 193 260 248 228 216 200 179 186 164 154 131 106 62 104 84 65 -1 -61 -18 52 164 185
249 273 268 223 186 168 135 103 108 87 98 86 80 60 31 35 108 112 116 120 147 176 181 216 229 228 226 206 172 138 110 86 84 80 49 88 59 3 -10 -12 46 114 263
226 252 229 187 163 153 125 100 98 90 39 17 23 7 28 65 130 123 102 118 142 181 213 226 213 209 235 198 170 140 132 136 133 120 155 135 71 59 47 52 120 181 224
223 209 188 175 156 143 102 86 67 64 21 -15 -8 25 40 89 120 101 129 115 132 159 172 162 153 158 169 204 193 178 149 135 121 103 100 80 78 77 78 66 101 134 149
177 173 164 168 161 142 128 81 22 6 -40 -18 3 3 78 106 158 138 125 109 85 122 146 147 155 139 138 148 144 146 131 124 100 77 68 73 78 82 78 86 95 101 114
165 173 178 170 148 124 63 16 41 40 71 53 39 50 118 112 134 143 120 93 72 102 122 140 141 138 136 140 122 90 83 93 85 74 51 46 70 77 74 75 82 89 90
173 182 181 176 156 117 109 110 25 110 112 64 50 110 134 152 152 179 144 83 125 133 146 141 138 132 128 126 88 51 76 101 94 66 44 74 77 61 97 97 85 81 71
229 237 222 206 177 148 84 107 118 140 112 132 144 152 156 190 186 177 157 121 146 119 143 140 139 126 128 129 97 83 121 135 141 120 114 123 111 87 84 88 79 71 59
272 272 253 265 248 202 148 216 240 175 112 118 128 148 173 189 180 166 188 165 177 150 144 137 137 134 129 111 95 159 207 224 184 159 138 120 110 94 84 77 65 49 36
313 321 346 395 201 337 170 258 343 195 93 147 138 145 159 167 172 179 206 206 196 151 145 123 128 175 150 89 102 178 195 197 155 128 106 94 86 79 69 59 49 40 36
439 433 440 438 147 277 191 365 230 176 201 127 119 127 160 150 138 150 168 170 169 158 171 120 155 164 100 52 85 146 150 135 124 104 101 102 92 88 83 71 55 52 48
506 502 441 319 361 319 228 310 156 242 148 120 111 168 175 103 73 96 122 152 179 187 181 142 122 129 96 85 92 108 99 96 93 107 101 106 107 99 87 67 77 61 61
567 315 340 409 271 263 326 158 215 185 151 138 181 187 125 87 80 92 117 132 153 175 179 119 94 99 86 82 59 80 90 89 92 98 107 100 98 96 91 80 67 51 50
410 441 388 332 291 373 253 190 190 164 174 160 157 143 97 83 83 101 120 131 128 145 161 121 105 81 79 66 68 96 90 98 89 72 75 83 80 76 70 76 76 73 66
406 329 280 321 401 291 288 191 162 179 189 202 171 148 92 114 113 132 154 155 157 148 145 127 99 82 76 80 87 88 86 83 87 67 64 49 40 43 54 73 76 76 78
497 478 423 399 293 369 262 145 187 217 198 173 166 154 127 156 129 149 158 167 163 152 141 137 112 99 99 96 91 93 82 76 71 47 57 72 61 58 52 60 67 58 43
288 333 454 418 460 372 152 165 190 186 176 194 201 193 158 151 130 145 157 150 158 147 135 121 113 112 115 96 98 71 45 62 63 85 107 83 64 58 21 25 30 37 37
637 715 564 554 195 174 170 137 174 199 230 220 201 202 166 156 136 139 173 153 161 153 131 116 116 114 103 93 90 75 57 54 53 93 104 88 127 100 93 46 27 10 19
605 610 185 137 117 142 93 92 169 241 244 235 231 203 183 159 146 127 136 132 151 151 125 125 123 121 112 115 106 71 54 44 33 53 81 32 108 74 108 104 36 9 2
230 125 121 140 104 79 73 89 175 264 269 257 235 219 195 180 166 172 153 146 134 103 102 123 128 126 127 112 97 64 48 54 72 79 78 33 94 80 119 84 21 12 3
113 126 126 82 105 92 81 104 171 243 250 236 238 232 198 161 161 166 166 156 130 103 93 101 120 108 113 104 121 96 61 48 56 61 88 60 73 80 91 114 55 39 16
137 158 123 145 146 116 98 112 196 233 242 237 246 233 207 166 121 112 167 150 119 84 72 65 62 59 63 69 74 105 66 41 38 46 107 98 71 85 89 55 47 40 64
150 162 153 124 112 116 113 122 173 245 254 237 244 229 160 167 131 113 168 154 121 81 79 82 78 74 84 85 65 109 108 57 53 34 60 35 50 72 91 66 74 70 60

GFSMA_con_3kmhel_045.txt.gz
Helicity
67 66 78 92 106 119 139 133 103 81 82 84 85 87 84 73 72 66 66 81 66 64 135 144 122 107 81 67 50 20 8 2 -8 -14 -10 -28 -3 53 40 46 60 46 72
66 77 106 132 145 146 145 119 101 94 98 95 96 90 86 79 71 69 80 117 177 133 171 176 140 124 118 90 67 73 70 57 28 13 -15 -36 -41 -41 -40 -32 -8 14 70
70 102 138 154 167 171 162 144 132 116 109 103 106 95 88 81 82 93 99 104 133 261 259 218 213 217 177 178 158 121 105 91 62 28 -23 19 22 6 -1 -35 -48 -67 -55
87 120 145 170 174 154 137 146 127 124 109 89 92 99 97 96 106 108 109 100 96 102 132 163 179 181 172 163 154 147 120 99 77 71 78 24 -1 24 8 -26 -32 -18 5
89 118 166 192 172 157 156 132 129 110 98 98 104 99 95 103 119 128 142 121 119 101 104 155 168 182 172 157 140 127 117 99 97 100 112 101 115 96 51 19 -15 -53 -113
98 143 186 191 181 188 160 147 137 134 119 115 110 106 84 36 63 100 121 104 125 95 95 120 132 158 157 157 146 119 117 126 140 156 154 146 129 106 87 53 31 -10 -47
129 162 198 211 191 178 175 169 175 153 148 127 90 11 -6 44 39 76 96 101 101 92 82 84 83 99 118 155 163 152 141 142 168 160 150 157 144 119 91 69 53 43 20
144 191 212 214 206 218 212 200 176 190 149 114 3 -29 -10 3 13 85 122 115 124 82 68 70 61 79 116 127 171 179 178 180 165 158 154 149 118 77 38 22 31 30 25
173 208 220 228 223 232 223 207 220 191 130 48 -68 -17 46 115 137 143 124 137 135 105 98 91 96 118 158 152 150 153 195 187 164 142 126 118 105 79 42 21 24 57 59
192 229 242 251 253 243 256 269 237 196 119 -6 -46 4 113 155 175 160 152 158 149 110 99 128 136 161 179 200 225 212 212 215 186 158 134 115 89 70 55 46 52 69 69
245 258 272 269 269 285 299 275 242 125 99 55 -19 107 138 171 177 148 146 175 146 110 126 141 156 174 188 228 231 246 239 218 195 160 122 85 71 58 41 41 42 51 51
262 268 278 269 294 337 313 218 159 106 102 45 124 119 126 122 141 158 150 152 173 154 130 126 132 161 177 216 205 207 182 145 103 75 68 65 62 55 59 63 57 52 56
291 289 283 324 380 383 294 230 249 78 90 124 167 165 94 142 156 156 180 179 180 176 145 133 122 158 164 161 171 159 126 94 83 81 85 87 86 91 97 88 74 64 55
305 282 314 372 459 347 329 238 114 139 170 178 129 113 148 148 172 187 175 168 160 139 131 130 119 149 170 169 158 112 106 83 80 80 76 81 84 88 89 87 75 67 62
347 306 363 427 424 351 227 197 153 241 273 205 142 128 145 178 190 151 117 122 146 150 131 177 145 170 150 143 136 107 98 82 67 60 66 67 72 75 70 68 74 73 68
303 372 428 426 404 279 235 240 316 241 176 214 159 154 171 177 148 129 133 123 127 145 153 159 156 168 151 132 111 96 83 63 54 59 62 65 54 47 58 61 54 45 47
318 352 408 436 350 418 194 365 370 239 115 130 155 176 139 133 145 146 139 142 135 157 155 130 184 158 140 111 102 95 81 74 78 66 69 56 45 47 52 40 30 28 27
326 418 463 429 323 348 318 479 424 135 112 149 154 144 108 155 140 143 156 140 149 147 161 143 136 165 135 110 101 86 79 80 86 80 54 42 54 60 44 38 27 21 25
280 373 460 548 250 505 315 372 150 93 136 138 122 136 115 154 154 175 163 170 165 176 178 180 149 169 131 111 93 75 67 67 85 62 55 83 95 56 40 23 15 9 8
284 426 479 444 469 521 240 177 134 144 125 114 107 105 119 167 172 169 174 168 171 178 178 184 163 147 130 112 98 74 65 67 75 70 87 127 70 41 20 3 2 -13 -1
525 525 495 536 424 249 197 195 148 98 89 68 76 106 144 166 193 206 209 176 177 180 177 173 160 146 118 108 94 80 64 64 57 64 89 107 56 55 39 20 7 -4 -5
421 558 475 366 154 174 133 81 59 67 68 99 105 132 146 200 214 214 199 191 191 167 159 173 153 136 101 104 90 76 64 73 60 58 64 71 55 44 42 23 -0 -11 -15
407 414 171 131 148 113 80 45 54 98 108 104 121 136 161 202 229 226 219 214 192 183 183 158 150 117 105 91 83 66 58 63 64 51 57 64 63 48 51 28 22 13 -12
179 119 97 86 69 55 55 67 94 113 124 126 135 138 158 185 218 220 228 254 178 169 169 180 151 108 102 90 83 67 57 52 60 58 62 75 65 45 27 27 34 29 22
68 86 92 76 70 83 99 90 115 136 146 141 153 161 169 173 184 219 245 199 190 169 156 140 128 102 95 82 56 69 61 63 62 58 55 101 58 21 24 25 54 54 36
97 98 87 97 110 99 95 107 130 173 171 175 176 182 169 131 174 200 212 213 215 148 156 134 129 106 95 86 68 64 64 67 63 63 85 76 55 31 23 21 41 49 70

GFSMA_con_3kmhel_048.txt.gz
Helicity
50 50 47 48 40 55 56 81 81 50 49 48 37 39 44 50 49 50 61 80 42 41 101 113 99 89 75 75 68 49 46 32 7 -4 -19 -29 -48 5 22 48 65 82 105
40 50 48 54 66 66 87 89 56 56 57 53 53 49 59 56 57 47 70 108 179 175 167 150 115 107 102 82 77 95 98 77 67 49 46 38 14 13 0 -17 -35 4 49
38 48 62 70 82 107 114 109 80 71 72 66 65 63 56 52 59 49 64 112 142 196 221 194 204 186 159 149 118 92 86 91 92 90 81 80 49 3 11 -1 -43 -61 -8
39 50 60 80 113 100 98 106 81 88 89 88 82 70 65 56 62 57 57 99 101 104 124 143 158 165 160 152 126 111 97 105 115 111 112 111 106 101 71 30 6 -8 -47
61 46 70 97 109 112 126 111 97 107 122 111 88 74 76 66 66 83 59 82 116 92 90 168 133 142 157 140 134 127 126 131 150 151 154 161 137 133 126 98 69 33 31
43 64 85 114 125 127 134 121 130 135 132 115 97 86 79 70 88 76 58 89 118 70 68 81 95 118 155 132 127 119 110 132 144 157 171 171 168 158 145 128 101 80 61
54 69 95 127 143 139 128 147 162 149 143 126 98 98 96 78 35 18 59 73 89 67 96 89 72 93 101 116 66 89 101 122 137 165 172 174 167 151 138 124 86 52 36
64 70 100 131 125 145 171 175 165 166 169 152 156 136 55 70 62 32 78 97 95 86 91 92 104 86 79 86 165 192 201 190 172 161 157 151 136 132 127 114 89 74 44
78 99 120 150 168 180 183 183 180 168 188 170 147 131 129 93 129 187 131 91 143 100 109 111 106 106 92 100 103 99 238 183 176 174 168 170 175 168 154 139 127 114 88
103 110 145 189 209 192 211 206 196 194 184 201 167 86 29 115 87 133 162 129 113 106 113 117 101 84 87 82 141 206 269 247 224 209 198 179 152 131 110 89 72 64 60
149 154 178 200 227 233 227 236 242 211 211 187 162 161 59 47 87 146 153 182 195 150 184 102 98 111 116 147 123 245 251 208 192 189 154 114 86 65 57 57 53 53 57
174 168 188 196 208 232 252 247 232 254 237 232 127 117 104 106 135 155 137 146 182 158 151 114 100 113 133 134 169 216 185 179 169 139 110 89 78 74 75 71 68 60 57
247 229 238 224 230 224 247 260 335 259 219 165 138 127 148 151 172 166 168 157 210 161 138 111 102 115 125 125 140 223 144 132 123 112 97 82 80 79 74 67 63 65 72
261 243 270 257 233 272 367 402 329 264 163 158 163 189 165 138 174 169 168 196 203 159 130 111 127 146 143 134 187 173 103 160 133 104 72 70 74 70 65 70 76 82 84
259 249 227 283 319 274 356 382 378 288 214 187 285 194 113 136 163 142 141 143 153 167 147 137 151 158 172 121 155 176 104 99 132 76 71 72 62 55 59 69 76 78 72
243 238 266 281 298 364 399 425 346 367 229 313 229 97 108 122 117 126 127 106 101 113 140 141 143 136 155 131 139 161 95 88 58 75 64 53 44 53 63 65 60 54 53
234 269 225 273 367 438 489 528 557 315 243 189 102 90 95 109 121 118 110 114 115 130 137 129 131 100 181 144 115 116 100 93 81 82 88 55 48 61 56 45 38 39 43
186 190 267 420 406 535 532 577 595 412 167 143 73 95 106 116 120 97 115 138 126 116 144 130 125 122 130 163 131 118 97 100 80 69 73 56 48 46 46 42 29 22 19
165 256 325 263 331 517 516 411 369 183 133 106 113 84 113 126 120 118 129 171 129 144 171 161 133 132 136 143 131 121 95 90 76 60 61 60 74 60 58 40 16 1 6
185 223 280 315 425 389 464 241 202 166 152 115 109 115 120 98 93 104 122 193 161 171 163 161 156 145 136 121 146 127 99 99 76 68 59 77 89 63 89 78 44 16 -1
225 237 303 340 306 397 172 164 175 178 153 129 126 96 89 81 91 119 151 150 186 207 185 161 163 154 140 129 146 144 117 91 72 63 64 65 80 71 65 73 59 41 23
253 241 229 224 161 163 138 132 142 153 133 105 106 82 89 107 127 144 175 183 194 188 183 201 183 176 120 143 142 131 107 96 77 66 68 58 68 56 55 65 85 43 6
246 188 141 149 106 106 131 125 127 108 103 88 93 108 106 111 165 141 170 208 228 232 253 188 200 159 138 125 132 119 93 90 72 60 60 58 59 54 59 49 59 28 27
169 148 119 90 96 106 118 113 118 107 113 94 100 110 122 130 137 192 141 195 175 157 204 187 163 114 129 123 129 106 98 75 60 53 55 60 57 51 56 38 24 43 46
115 65 81 99 90 89 128 107 111 119 128 118 127 131 140 152 164 225 186 187 164 180 180 233 207 199 209 195 139 110 104 86 64 53 55 61 63 42 50 39 55 96 61
101 99 100 102 117 97 99 107 130 154 163 169 153 160 193 199 176 243 221 179 206 124 131 162 207 158 132 112 114 108 91 84 64 52 56 65 59 38 40 43 47 24 51